Wind_Speed
40 41 41 42 43 44 44 45 46 46 47 48 48 49 49 49 50 50 50 51 51 52 52 53 53 54 54 54 55 55 55 56 56 56 57 57 57 57 57 57 58 58 59 59 59 59 60 60 61 61 62 63 63 64 65 65 65 65 66 66 66 66 66 66 66 65 65 64 64 64 64 64 64 64 64 64 64 63 62 60 57 57 56 53 51 50 50 49
40 40 41 42 42 43 44 45 45 46 47 48 49 50 50 51 51 51 51 52 52 52 53 53 54 54 55 56 56 57 57 58 58 58 59 59 59 59 59 60 60 60 60 60 60 60 61 61 62 62 62 63 64 65 65 66 66 66 66 66 66 66 65 65 64 64 63 62 62 62 62 62 62 62 63 62 62 61 58 55 54 54 53 50 49 49 49 49
41 41 42 42 43 43 43 44 45 46 47 48 49 50 51 52 52 52 53 53 53 54 54 54 55 55 56 56 57 58 58 59 59 59 60 60 61 61 61 61 61 62 62 62 62 62 62 63 63 63 64 64 64 65 65 66 66 66 65 65 65 65 64 63 62 61 60 60 60 60 60 60 61 61 62 61 60 58 54 52 52 52 51 49 49 49 49 49
42 42 43 43 43 44 44 44 45 46 47 48 49 50 51 52 53 53 54 54 55 55 55 56 56 57 57 58 59 59 60 60 60 60 61 61 61 62 62 62 63 63 63 63 63 63 64 64 65 65 65 65 65 66 66 66 65 65 64 63 63 62 61 60 58 58 57 57 58 58 58 59 60 61 61 59 58 54 51 51 51 51 50 49 49 49 50 50
41 42 43 44 44 45 45 46 46 47 47 48 49 51 52 53 53 54 55 55 56 56 57 57 58 59 59 60 60 61 62 62 62 62 63 63 63 63 64 64 64 64 64 64 65 65 65 66 66 66 66 66 65 65 65 65 64 63 62 61 60 59 58 56 55 55 55 55 56 57 57 58 60 60 59 58 55 50 49 51 51 51 50 49 50 50 51 52
38 41 43 44 45 45 46 46 47 48 48 49 50 51 52 53 54 55 56 57 57 57 58 59 60 60 61 62 63 63 64 64 64 65 65 66 66 66 66 66 67 67 66 66 67 67 67 67 67 66 66 65 64 64 64 63 62 61 60 58 57 55 54 54 53 53 53 54 55 57 58 59 59 58 58 55 52 48 49 51 51 51 51 50 51 51 52 53
35 38 40 42 43 44 45 46 47 48 49 50 51 51 53 54 55 56 57 58 59 59 60 61 61 62 63 64 65 65 66 66 67 67 68 69 69 69 69 69 69 69 69 69 69 68 68 67 66 65 64 63 62 62 62 61 59 58 56 54 53 52 51 51 51 51 52 54 56 57 58 59 57 56 55 52 49 49 50 51 51 51 52 52 52 53 54 55
32 34 36 39 41 42 44 45 46 47 48 50 51 51 53 54 55 57 58 59 60 61 61 62 63 63 64 65 66 67 67 68 68 69 70 71 71 71 71 71 71 71 70 69 68 68 66 65 64 63 61 60 60 59 58 57 55 54 52 51 50 50 49 49 50 51 53 55 57 58 57 56 55 53 52 50 49 50 51 51 52 52 53 53 54 55 55 57
30 31 33 35 37 39 41 43 44 46 47 49 50 51 52 54 55 56 58 59 60 61 62 63 63 64 65 66 67 67 68 68 69 70 71 71 72 72 71 71 70 70 69 67 66 65 63 61 60 59 58 57 56 55 54 53 51 50 49 49 48 48 48 49 51 52 54 56 57 56 54 53 53 51 50 50 51 51 52 52 53 53 54 55 55 56 57 58
27 29 30 31 33 35 37 39 41 43 44 46 47 49 50 52 54 55 57 58 59 60 61 62 63 64 65 65 66 67 67 68 68 69 69 70 70 69 69 68 67 66 65 63 61 60 58 56 55 54 53 52 51 50 50 49 49 48 47 47 47 47 48 50 52 54 56 57 56 53 52 52 52 51 50 52 52 52 53 53 53 54 56 57 57 57 59 61
25 26 27 28 29 31 33 35 36 38 40 42 44 46 47 49 51 52 54 55 56 58 59 60 61 61 62 63 64 64 65 65 65 66 66 66 65 65 64 62 61 59 58 56 55 54 52 51 50 49 49 48 48 47 47 47 47 47 46 46 47 48 50 52 54 56 56 55 52 50 50 52 53 52 52 53 53 54 54 54 55 56 57 58 58 59 61 63
22 23 24 25 26 28 29 31 33 35 36 38 40 42 44 46 48 49 51 52 53 54 55 56 57 57 58 58 59 60 60 60 60 61 60 60 59 59 58 56 55 53 52 50 50 49 47 46 45 44 45 45 45 45 46 46 46 46 45 46 48 50 52 54 55 56 54 52 50 48 50 55 54 54 54 54 54 55 55 55 56 58 58 58 59 60 62 64
19 20 21 22 23 25 26 28 30 32 33 35 37 39 41 43 45 47 48 49 50 51 52 52 53 53 53 54 54 54 54 54 55 56 55 55 54 53 52 51 49 48 47 47 46 45 44 42 40 40 42 43 43 44 45 45 45 45 46 48 50 52 54 56 56 54 51 49 49 48 50 56 57 56 57 56 55 55 55 56 58 59 59 59 60 62 64 65
15 17 18 19 21 22 24 26 27 29 31 33 35 37 39 41 43 45 46 47 48 49 49 49 50 50 50 50 50 50 50 50 51 51 51 50 50 49 48 46 46 45 44 44 43 42 41 39 39 40 42 43 43 44 45 46 46 46 48 50 52 54 56 57 55 52 48 48 50 50 51 57 59 57 58 58 56 56 56 57 59 59 60 61 62 63 65 67
13 14 15 16 18 19 21 23 25 27 29 32 34 36 38 40 42 43 44 45 46 46 47 47 47 47 47 48 47 47 47 48 48 48 48 48 47 46 45 44 43 43 42 42 41 39 38 37 39 41 43 44 45 46 46 47 47 48 50 52 55 56 56 55 53 49 47 48 51 51 51 56 60 59 58 58 57 57 57 59 60 60 62 63 64 65 67 67
11 12 13 15 16 18 19 21 23 25 28 30 33 35 37 38 40 41 42 43 44 44 45 45 45 46 46 46 46 46 46 46 46 47 47 46 45 44 43 41 41 40 40 39 38 37 37 38 40 43 45 46 46 46 47 48 50 51 53 55 57 57 55 53 51 48 47 49 50 52 53 55 59 60 59 57 58 58 58 60 61 61 63 64 65 66 67 68
11 12 14 15 16 17 19 21 23 25 27 30 32 33 35 36 38 39 40 41 42 43 44 44 44 45 46 46 45 45 45 45 45 45 45 44 43 41 39 38 38 37 36 36 35 36 38 41 42 44 45 46 47 47 48 50 52 54 56 57 56 55 54 51 48 48 49 50 51 53 54 54 58 61 60 57 57 59 59 60 61 63 63 65 66 67 68 69
14 15 16 17 18 19 20 22 24 26 28 30 32 33 34 36 36 37 38 39 40 41 42 43 43 44 45 45 45 45 45 45 44 44 42 40 38 36 35 33 33 33 33 34 35 38 40 42 44 44 46 46 47 48 50 53 55 57 57 56 55 54 54 51 48 49 51 51 53 54 54 54 58 62 62 59 57 59 61 60 62 63 65 66 66 67 68 70
17 19 19 20 21 22 23 24 26 27 29 30 32 34 34 36 36 37 37 38 39 40 41 42 43 44 44 45 45 45 45 44 43 40 38 36 34 33 31 31 31 32 34 36 38 40 42 44 45 45 46 48 50 52 54 56 58 58 56 54 54 54 52 51 50 52 53 52 53 56 56 55 57 61 63 62 59 59 61 62 63 64 65 66 67 68 70 71
20 22 22 23 24 25 26 26 27 29 29 31 33 33 34 35 35 35 36 36 37 38 40 41 42 43 43 43 44 43 42 41 38 36 34 33 32 31 30 31 33 35 37 39 40 42 43 45 46 47 49 51 53 55 57 58 57 56 55 55 55 54 52 52 52 53 55 53 53 56 58 57 58 60 62 62 61 61 61 63 64 65 66 67 68 69 71 73
23 24 25 25 26 27 28 28 29 30 30 30 32 32 31 32 32 32 32 33 33 35 36 37 38 39 40 40 40 39 37 35 33 32 31 31 31 31 32 34 36 38 39 41 43 45 46 48 49 51 52 54 55 57 57 56 55 55 56 56 55 54 52 52 52 54 56 54 55 57 58 58 58 60 62 62 61 62 63 63 65 65 66 67 69 71 73 74
25 26 27 28 28 29 30 30 30 30 30 30 31 31 29 28 29 29 29 29 29 31 32 32 34 34 35 35 34 33 32 30 30 29 28 29 30 32 34 36 38 40 42 44 46 47 49 50 52 53 54 55 56 56 55 54 55 57 58 56 55 53 53 52 53 55 56 56 56 58 60 60 58 60 64 64 62 64 64 64 66 66 67 68 70 73 74 75
27 29 29 29 30 31 31 32 31 31 31 30 30 30 28 26 26 26 25 25 26 27 27 28 29 29 30 29 28 27 25 26 27 28 29 31 33 35 37 39 41 43 45 46 48 50 51 52 53 54 55 55 54 54 54 55 56 57 58 56 53 52 52 53 53 54 57 58 58 60 61 61 59 60 64 64 64 65 65 65 66 67 68 69 71 73 74 76
29 31 31 31 32 33 33 33 33 32 32 31 30 29 28 25 23 23 22 22 23 23 23 24 25 26 27 28 27 26 26 28 29 32 33 34 36 38 40 42 43 44 46 47 49 50 52 53 53 54 54 53 53 55 56 56 56 57 57 55 52 51 53 55 55 55 57 58 59 62 62 61 60 61 63 64 65 66 65 66 67 68 69 70 72 73 74 75
32 32 32 33 34 34 34 34 34 34 33 32 31 29 29 26 23 22 21 20 21 21 21 23 24 26 27 29 30 30 31 33 35 36 36 37 38 39 41 43 44 46 47 48 50 51 52 52 52 52 52 53 55 57 57 57 57 55 53 54 53 53 54 56 57 58 58 60 60 62 61 59 61 64 64 65 65 65 65 66 67 68 69 70 71 72 73 75
33 34 34 35 36 35 35 34 35 35 35 34 32 29 28 27 24 22 21 20 20 20 21 23 24 26 28 30 32 33 34 35 37 38 38 39 41 42 44 45 46 48 49 50 50 51 51 51 51 52 54 56 56 57 58 59 56 52 51 54 54 55 56 57 59 59 60 62 61 60 60 58 60 64 65 65 65 64 64 66 67 68 69 70 71 72 73 75
34 35 35 36 36 36 35 35 36 36 36 35 33 29 27 27 25 22 21 20 20 21 22 23 25 26 29 30 32 33 35 35 36 37 38 39 41 42 44 45 46 47 48 48 48 49 50 51 52 54 56 57 57 58 60 59 54 52 52 54 55 57 58 59 60 61 62 61 58 58 61 60 60 63 65 65 65 65 66 66 67 69 70 71 72 72 73 74
35 36 37 37 36 36 36 36 37 37 37 35 33 30 27 26 26 23 21 21 21 22 23 24 25 27 29 31 31 32 33 34 34 36 37 38 40 41 42 43 44 45 46 47 48 51 52 53 55 57 57 57 58 59 59 57 54 53 54 55 57 58 59 60 61 62 61 58 56 57 60 60 60 63 65 65 65 65 67 67 68 70 71 71 71 72 72 71
37 37 37 37 37 36 36 37 38 38 38 36 34 31 27 25 25 24 23 22 23 24 24 25 26 28 30 31 32 31 31 32 34 36 37 38 40 41 42 43 45 47 49 50 52 54 55 57 57 58 58 58 59 59 58 56 55 56 57 58 59 59 60 61 61 60 58 56 55 57 59 58 59 64 67 65 65 66 67 68 69 70 70 70 69 67 65 63
38 38 38 37 37 37 37 37 38 38 38 37 34 31 27 25 24 24 24 24 26 26 26 27 28 30 31 32 33 33 33 34 36 38 40 41 43 44 46 48 49 51 53 54 55 56 57 58 58 58 59 59 59 59 59 58 58 59 60 60 60 60 60 59 58 58 58 55 54 55 58 59 60 65 68 67 67 69 69 68 69 68 66 64 62 60 59 58
38 38 38 37 37 37 38 39 39 39 38 37 34 30 27 25 24 24 25 26 27 28 29 30 31 32 33 34 35 37 37 39 40 42 44 46 48 49 50 52 53 54 55 56 56 56 57 58 58 59 60 60 60 60 60 60 61 62 62 61 60 59 58 55 55 57 57 56 55 55 58 60 62 65 67 67 67 69 70 69 66 63 59 58 57 57 59 60
38 38 37 37 37 38 39 40 40 40 38 36 33 29 27 25 24 24 25 27 28 29 31 33 34 35 36 37 38 39 40 42 43 45 46 48 49 50 51 52 53 54 54 55 56 57 58 59 60 61 62 62 61 60 61 61 62 63 62 61 59 57 56 53 53 55 56 56 56 56 58 60 63 65 65 66 67 67 66 63 59 57 56 57 59 60 61 62
37 37 37 38 38 39 40 41 40 40 38 35 31 29 27 26 25 24 25 26 28 30 31 32 34 36 37 39 40 41 42 43 44 46 47 48 49 50 51 52 53 54 54 56 57 58 60 62 64 64 63 63 62 61 62 62 62 62 61 60 58 57 55 52 53 55 56 57 55 55 58 60 62 64 63 64 64 61 58 56 55 57 59 61 62 63 64 65
37 37 38 38 39 40 41 41 41 39 37 33 30 28 27 26 25 25 25 26 27 29 30 31 32 35 37 39 41 42 43 45 46 48 48 50 51 52 53 54 55 57 57 57 59 60 61 63 64 63 62 62 63 63 63 61 59 59 59 58 57 58 57 54 53 54 56 56 54 53 56 59 60 59 57 58 57 54 53 55 57 60 62 63 65 66 68 69
38 38 39 39 40 41 41 41 41 38 35 31 29 27 26 26 25 25 25 25 26 27 29 30 31 32 35 38 40 42 44 46 48 49 50 52 53 55 56 57 58 59 59 59 60 60 59 59 60 61 61 62 62 62 62 59 57 56 56 57 57 58 58 57 55 55 54 51 48 47 49 53 56 53 51 53 53 53 55 58 60 63 64 66 68 69 71 73
38 39 40 40 41 42 42 41 39 36 33 30 27 26 26 26 25 24 24 24 25 26 26 28 29 30 32 35 38 41 43 46 48 50 51 52 54 55 56 58 59 59 59 58 57 56 55 55 57 59 61 61 60 59 58 57 55 54 54 55 56 56 57 55 51 48 47 43 38 38 40 47 53 51 50 53 54 55 58 61 63 66 67 69 71 73 75 76
39 40 40 41 42 42 42 41 38 34 31 28 26 25 25 25 24 23 23 23 24 25 25 26 27 28 29 31 34 37 39 42 45 48 50 51 52 54 54 55 56 56 55 55 54 54 53 52 54 57 58 58 57 56 55 56 55 53 53 54 54 51 49 46 41 38 38 37 36 37 39 46 54 55 53 54 56 58 61 64 66 68 70 72 74 76 78 79
39 40 41 41 42 42 41 39 35 32 29 27 25 24 24 23 22 22 22 23 23 24 25 26 26 26 27 28 30 32 35 38 40 43 45 46 47 49 49 50 51 51 52 52 52 52 52 50 50 54 57 55 54 54 53 53 54 53 53 52 48 43 39 37 37 37 38 38 39 41 42 47 55 60 59 58 59 62 64 66 70 72 74 75 77 79 81 83
40 40 41 41 42 41 39 36 32 29 27 25 24 22 22 22 22 22 22 23 24 24 25 25 25 25 26 27 28 30 31 34 36 38 40 41 43 44 46 47 48 49 50 50 50 50 50 49 48 51 55 54 53 53 52 51 52 53 50 45 40 38 37 37 38 41 42 41 42 44 45 50 57 61 62 62 64 66 67 70 73 75 77 79 80 82 84 86
40 41 41 42 41 39 36 32 29 27 25 24 22 21 21 21 22 22 23 24 25 25 25 25 26 26 26 26 27 29 30 32 34 36 38 39 41 42 44 45 46 47 48 48 49 49 49 49 48 49 52 52 51 51 51 50 48 45 42 39 38 38 40 41 42 45 47 47 48 48 47 54 61 63 64 66 67 68 71 74 77 78 80 82 84 85 87 89
40 41 42 41 39 36 32 29 27 25 23 22 21 20 20 21 23 24 24 25 26 26 26 26 26 27 27 28 28 30 31 33 34 35 37 39 40 41 43 44 45 46 47 47 48 48 48 48 49 49 50 50 50 50 49 47 42 38 37 38 39 41 43 44 44 47 50 53 56 55 52 57 65 67 68 70 71 72 74 78 79 81 84 86 87 89 91 93
41 42 41 39 35 32 29 26 24 23 22 21 20 21 21 22 24 25 26 26 27 27 27 28 28 28 29 30 31 31 33 35 36 37 38 39 40 41 42 44 44 46 46 47 48 48 48 47 47 48 48 49 50 47 43 40 37 37 39 40 42 45 47 48 48 49 51 55 60 60 59 62 66 68 72 75 75 75 78 81 83 84 87 90 92 94 96 98
41 41 39 35 31 28 26 24 23 22 21 21 21 22 22 24 25 26 27 28 29 29 29 29 30 30 31 32 33 34 34 36 38 39 39 40 41 42 42 44 44 45 46 46 47 47 47 47 47 46 47 49 48 42 37 36 38 40 41 43 45 48 50 53 54 55 55 58 62 64 65 68 69 70 75 78 78 78 80 83 86 88 91 94 97 99 100 102
41 39 35 30 27 25 24 22 21 21 21 22 23 23 24 25 27 28 29 29 30 30 30 31 31 32 33 33 34 35 36 37 39 40 40 41 42 43 43 44 44 45 45 45 46 47 47 47 47 45 46 45 42 38 36 38 41 43 44 46 49 51 54 56 59 60 60 61 66 68 69 73 76 77 79 80 81 82 84 86 89 91 95 98 101 103 104 106
38 34 30 27 25 23 22 21 21 21 22 23 24 25 26 27 28 29 29 30 30 31 31 32 32 33 34 35 35 36 37 38 39 40 41 41 42 43 43 44 44 44 44 44 45 45 47 48 47 44 41 38 36 35 37 39 42 45 47 50 52 55 58 61 63 64 64 65 68 71 72 75 80 83 84 85 86 87 88 90 93 96 99 102 105 106 108 110
33 30 27 25 23 22 21 21 21 22 23 24 26 27 28 29 29 30 30 30 31 31 32 33 33 34 35 36 37 38 39 39 40 40 41 42 42 43 44 44 44 44 44 44 44 44 46 47 45 40 37 35 35 36 38 41 44 47 49 52 55 58 61 65 67 69 70 69 71 75 76 76 81 86 88 89 90 91 92 94 97 100 102 106 108 109 111 113
29 26 24 23 21 21 21 22 22 23 24 26 27 28 29 29 30 30 31 31 32 32 33 34 35 36 37 38 39 40 40 41 41 41 42 42 42 42 43 43 43 44 44 44 44 43 43 43 40 37 37 38 38 39 42 44 47 49 52 55 58 61 65 68 71 73 74 75 75 79 81 82 84 87 90 92 93 94 95 98 100 103 106 108 111 112 114 117
25 24 22 21 21 21 22 23 24 25 26 27 28 29 29 30 31 31 32 33 33 34 35 36 37 38 39 39 40 41 42 42 43 42 42 42 42 42 43 43 43 43 43 43 42 39 38 37 37 37 40 41 42 43 46 48 50 52 55 59 61 65 68 71 75 77 79 80 81 83 86 88 89 91 93 95 97 98 99 102 104 107 110 112 114 116 118 121
22 22 21 21 21 22 23 24 26 27 27 28 28 29 30 31 32 33 34 35 36 36 37 38 39 39 40 40 40 41 41 42 42 42 42 42 42 42 42 42 42 42 41 39 37 33 33 35 37 39 43 45 46 47 49 51 54 56 59 62 65 68 71 75 78 81 83 84 86 87 89 92 93 94 95 97 100 102 104 106 108 111 114 117 118 120 122 125
21 21 21 22 23 24 25 26 27 28 28 28 30 31 32 33 34 34 35 36 37 38 38 39 39 40 40 40 40 40 41 41 41 42 42 42 42 42 41 41 41 40 37 34 32 31 32 36 38 40 45 49 50 51 53 55 57 60 63 66 69 72 75 78 82 85 87 88 89 91 93 94 96 97 98 101 104 107 109 110 112 115 118 121 123 125 127 129
20 21 22 23 24 25 26 27 27 28 29 30 31 33 34 35 35 36 37 38 38 39 39 39 39 39 39 39 40 40 40 41 41 42 42 42 42 42 41 40 38 35 33 31 31 33 35 37 40 43 46 50 53 55 57 58 60 64 68 70 73 76 78 81 85 89 91 91 92 94 96 96 97 99 100 103 107 111 114 115 117 119 122 125 127 129 131 133
21 22 23 25 26 26 27 28 29 30 31 32 33 34 35 36 37 38 38 39 39 39 39 39 38 38 38 39 40 41 41 42 43 43 42 42 41 40 38 35 32 31 31 32 34 36 38 40 43 45 48 52 55 58 60 62 64 67 71 74 77 80 82 84 88 92 96 96 96 97 99 99 100 102 103 105 108 112 117 120 122 124 126 128 130 132 135 136
Wind_Direction
224 225 227 228 230 231 232 233 234 235 236 237 238 239 240 241 242 243 244 245 246 247 249 250 251 253 254 255 255 256 257 258 258 259 260 262 263 265 266 267 268 269 270 271 272 273 274 275 276 277 278 279 280 281 281 282 282 283 284 284 284 285 285 285 286 286 287 287 287 288 288 289 290 290 291 292 293 294 294 293 290 287 287 286 284 283 283 282
226 228 229 230 232 233 234 235 236 237 239 240 240 241 242 243 244 245 246 248 249 249 250 252 253 254 256 256 257 258 259 260 261 262 262 263 264 266 267 268 269 270 271 272 273 274 275 276 277 278 278 279 280 281 281 282 282 283 283 283 284 284 284 285 285 286 286 286 287 287 288 289 290 291 292 294 294 294 294 291 288 286 286 285 283 282 282 282
229 230 231 233 234 235 237 238 239 240 241 242 243 243 244 245 246 247 248 249 250 251 252 253 254 255 256 257 258 259 260 261 262 263 264 265 266 267 268 269 270 271 272 273 274 275 276 277 278 279 280 280 281 281 281 281 282 282 282 282 282 283 283 284 284 285 285 286 287 288 289 290 291 292 293 294 294 294 293 289 286 285 285 284 283 282 283 283
230 232 233 235 236 237 239 240 241 242 243 244 245 246 246 247 248 249 250 251 252 253 254 254 255 256 257 258 259 260 261 261 263 264 265 266 267 268 268 269 270 271 272 273 274 275 276 278 278 279 280 281 281 281 281 281 281 281 281 281 281 282 283 283 284 284 285 286 287 288 290 291 292 293 294 293 293 293 291 287 285 285 285 284 283 283 284 284
231 233 234 236 237 238 240 241 243 244 245 246 247 248 249 249 250 250 251 252 253 254 255 256 256 257 258 259 260 260 261 262 263 264 265 266 267 268 268 269 270 271 272 273 274 275 276 277 278 279 280 280 280 279 279 279 279 279 279 280 280 281 282 282 283 284 285 286 287 289 291 292 293 294 293 292 292 292 288 286 285 285 285 285 284 285 285 284
232 233 235 236 238 239 241 242 243 245 246 247 249 250 251 251 251 252 252 253 254 255 255 256 257 258 259 259 260 261 262 263 264 265 266 266 267 268 269 270 271 272 273 274 275 276 277 277 278 279 279 279 278 277 277 277 278 278 278 279 279 280 281 281 282 283 284 286 288 290 292 294 294 293 292 291 292 290 286 285 285 285 285 285 285 285 284 284
233 234 235 237 238 240 241 243 244 245 246 248 249 251 252 252 253 254 254 254 255 255 256 257 258 259 260 261 261 262 263 264 265 266 267 267 268 269 269 270 271 272 273 274 275 276 277 277 277 278 277 276 275 275 275 276 276 277 277 278 278 279 280 281 282 283 285 288 290 292 294 294 293 291 291 291 291 288 286 286 285 285 285 285 285 285 285 285
235 236 237 238 239 241 242 244 245 246 247 248 250 251 252 254 254 255 256 256 257 257 258 259 259 260 261 262 263 263 264 265 266 267 267 268 268 269 270 271 272 273 273 274 275 275 276 276 276 275 274 273 273 273 273 274 275 275 276 277 277 278 279 280 282 284 287 290 293 295 295 293 291 290 291 291 290 288 287 286 286 286 285 285 285 285 286 286
236 237 238 239 241 242 244 246 247 248 249 251 252 253 254 255 256 257 258 258 259 259 260 260 261 262 263 263 264 265 265 266 267 267 268 269 269 270 271 272 272 273 274 274 274 274 274 274 273 272 271 271 271 270 271 272 273 274 275 276 277 277 279 281 284 287 290 293 295 295 293 291 289 290 291 291 289 288 287 286 286 285 284 284 285 286 287 286
239 240 241 242 244 245 247 248 250 251 253 254 255 256 257 257 258 258 259 260 260 261 262 262 263 263 264 264 265 266 266 267 267 268 269 269 270 271 272 272 273 273 274 274 273 272 272 271 270 269 269 268 268 268 269 270 272 273 274 275 276 278 280 283 287 290 293 295 295 293 291 289 290 291 291 290 289 288 286 285 285 284 283 284 285 286 287 286
242 243 244 246 248 249 250 252 253 254 255 256 257 258 259 259 260 260 260 261 262 262 262 263 263 264 264 265 266 266 267 267 268 269 269 270 271 272 272 272 272 272 272 272 271 270 269 269 268 267 267 266 267 268 269 270 271 272 273 275 277 280 283 286 290 293 295 295 292 291 291 290 291 291 290 289 288 287 286 285 284 283 283 285 286 287 287 287
243 245 246 248 250 251 252 254 255 256 257 257 258 259 260 260 261 261 261 261 262 262 262 263 263 264 264 265 266 266 267 268 268 268 269 270 270 271 271 271 271 271 270 269 268 267 266 266 266 266 267 267 268 268 269 269 270 271 273 276 279 282 285 289 292 295 295 293 290 291 293 292 292 292 290 289 288 287 286 285 283 283 284 286 287 286 286 286
246 248 249 251 253 254 256 257 258 258 259 260 260 260 260 261 261 261 261 261 261 261 262 262 262 263 264 264 265 265 266 267 267 268 269 269 270 270 270 270 270 269 267 265 264 264 263 263 263 264 265 266 267 267 267 268 269 272 274 278 281 284 288 292 294 295 293 290 290 292 294 293 292 292 290 289 287 286 285 284 283 283 285 285 285 285 286 286
249 251 253 255 256 257 259 260 261 261 262 262 262 261 261 261 261 261 261 261 261 261 261 261 261 262 262 262 263 264 265 266 267 268 269 269 270 270 270 270 268 266 264 263 262 261 261 261 260 261 262 263 264 265 266 268 270 273 277 280 284 288 291 293 294 293 290 289 291 293 294 293 292 291 290 289 287 286 285 284 284 285 286 286 286 286 286 287
253 255 257 258 259 261 262 264 264 265 265 264 264 263 262 262 262 262 262 262 261 261 261 261 261 261 261 261 262 263 263 264 266 267 268 269 270 270 269 268 266 264 262 260 260 260 260 260 260 261 261 262 263 264 267 270 273 276 280 284 287 290 292 293 292 290 288 289 292 294 295 293 291 290 289 288 287 286 286 285 285 286 286 287 287 287 288 289
264 266 267 268 268 269 269 271 271 271 271 270 268 267 266 264 264 263 263 263 262 261 261 260 260 260 260 260 261 261 262 263 265 266 267 268 268 268 267 265 263 262 260 259 259 259 260 260 261 261 261 262 263 266 270 273 277 279 282 286 289 291 292 292 291 289 288 290 293 295 296 294 290 289 288 287 287 286 286 286 286 286 287 287 288 288 289 291
280 281 282 282 282 282 282 282 282 282 281 279 276 274 271 269 267 265 264 263 263 262 260 259 259 258 258 259 259 260 261 263 264 265 266 266 266 265 264 263 262 261 260 260 260 260 260 260 260 260 261 263 265 269 274 277 279 281 285 288 290 291 292 291 289 289 291 292 294 296 298 295 291 289 287 287 287 287 287 287 287 287 287 287 288 289 291 291
296 298 298 297 297 297 296 294 292 291 289 286 284 281 278 275 271 269 266 264 262 261 260 259 258 257 257 257 258 259 260 262 263 264 264 264 263 262 261 260 261 263 263 261 260 259 258 258 258 259 262 265 270 274 277 279 281 284 287 289 291 292 292 291 289 289 291 293 295 296 298 296 291 289 288 288 287 287 287 287 287 287 288 288 289 290 291 291
305 306 305 305 306 305 302 300 298 295 293 291 288 285 281 278 275 272 269 266 263 261 260 258 257 256 257 257 257 258 259 261 262 262 261 259 258 258 259 262 264 263 261 258 256 256 256 257 259 262 266 270 273 276 278 280 283 286 287 289 292 293 291 290 290 290 290 292 295 296 298 296 290 288 289 289 289 288 288 288 288 288 288 289 291 291 291 291
307 307 307 308 309 308 305 303 301 298 296 295 292 288 284 280 276 274 270 267 264 262 260 259 257 257 256 257 257 258 259 260 259 258 256 256 258 260 261 261 260 257 255 254 254 256 258 261 263 266 269 272 275 278 280 283 285 287 289 291 292 292 290 289 290 290 290 292 293 295 297 296 290 288 288 289 290 290 289 289 289 290 290 291 292 292 292 292
305 305 305 308 310 309 307 306 304 302 300 299 297 293 288 283 279 275 271 267 264 262 260 259 258 257 256 256 256 257 256 255 253 254 256 258 258 257 255 254 252 251 252 253 256 259 262 265 267 270 272 274 277 281 283 285 286 288 290 291 292 291 289 289 290 290 291 292 294 295 297 295 290 289 289 289 290 290 290 291 291 291 292 292 292 292 292 293
303 303 304 307 310 310 309 308 307 305 304 304 303 299 293 287 282 277 272 268 265 262 260 259 258 257 256 255 255 255 254 253 252 255 258 258 257 254 253 253 254 255 256 258 261 264 266 268 270 272 275 278 281 283 284 286 288 289 291 291 291 290 289 289 289 290 292 293 294 296 297 295 291 290 290 291 292 291 291 292 291 292 292 292 292 292 293 294
302 302 304 308 310 311 311 310 309 309 309 310 309 305 298 292 284 279 274 270 266 263 261 259 257 255 252 250 249 250 254 256 255 254 253 253 254 254 255 257 259 260 262 264 266 268 270 271 273 275 278 281 282 283 285 287 288 290 291 290 289 289 288 288 289 290 292 294 295 296 296 293 290 290 290 291 292 291 292 292 292 292 292 292 293 293 293 293
301 301 305 308 311 312 312 311 311 312 313 314 314 309 303 297 289 282 278 273 269 265 262 258 254 250 245 240 238 239 243 246 245 245 246 248 251 254 256 257 259 261 264 266 268 271 273 274 276 278 280 281 282 284 286 287 289 291 291 290 289 288 288 289 290 291 292 294 295 296 295 293 291 290 290 291 291 290 291 291 291 291 292 292 292 292 292 293
299 301 305 308 310 312 311 311 312 313 315 316 316 312 306 300 293 287 282 276 272 267 261 256 250 245 242 238 237 237 239 240 241 243 245 248 251 253 256 258 260 263 266 268 271 274 275 277 278 279 280 281 283 285 286 288 290 291 290 290 290 289 288 289 290 291 292 293 295 294 293 291 291 291 290 290 290 290 290 290 290 291 291 291 291 291 292 293
297 302 306 308 310 311 311 311 313 314 316 316 316 313 307 300 295 289 284 278 273 268 261 254 248 244 242 240 241 243 244 245 246 248 250 252 255 257 259 262 264 268 270 272 274 275 276 277 278 279 281 283 284 286 288 290 291 291 289 290 290 290 289 290 291 292 293 294 294 293 291 290 290 290 290 290 290 290 291 290 291 291 291 291 291 292 294 294
298 303 306 308 310 310 310 311 312 314 315 316 315 312 306 299 294 290 284 277 272 267 261 254 249 246 246 246 248 249 251 253 254 255 257 259 262 264 266 268 269 271 272 273 274 274 275 276 277 280 282 283 285 288 290 292 291 290 290 290 290 290 290 291 291 292 293 294 294 293 292 292 291 291 291 291 291 292 291 291 291 291 291 292 293 295 296 297
299 303 306 308 309 309 310 311 312 313 314 315 313 310 304 297 293 290 284 276 269 266 262 258 254 251 250 252 254 255 257 260 262 263 264 266 267 268 269 270 270 270 271 271 272 273 275 277 279 281 282 284 287 290 292 292 291 291 291 291 290 290 290 291 292 293 293 293 293 292 292 292 293 291 290 290 292 292 292 292 292 291 293 295 296 298 298 298
300 303 306 308 308 308 309 310 311 313 314 313 311 308 302 295 291 289 285 277 270 267 264 261 258 256 254 255 256 257 260 263 265 265 265 265 266 266 266 266 267 268 269 271 273 275 277 279 281 282 283 286 289 291 292 292 291 292 292 291 290 290 290 291 292 293 293 293 293 293 292 292 293 292 290 290 291 291 291 291 291 293 296 298 299 298 298 299
300 304 306 307 307 308 309 310 311 312 313 312 309 305 299 293 289 287 284 278 272 269 266 263 260 259 259 258 257 256 256 257 258 258 259 260 261 261 263 265 267 269 271 274 275 277 279 280 281 282 285 289 291 292 292 291 291 292 291 291 290 290 291 292 294 294 293 293 293 293 293 293 293 292 292 293 293 292 292 292 294 297 299 299 298 297 298 299
301 305 306 307 307 308 309 310 311 312 312 310 307 302 297 291 287 283 281 278 274 270 267 264 263 262 261 260 259 257 256 255 255 256 257 259 261 262 264 267 269 272 274 276 277 279 280 281 283 286 288 290 291 291 291 291 291 291 291 290 290 291 291 293 293 293 294 294 293 293 293 293 292 291 291 293 293 293 294 296 299 301 300 298 298 298 299 300
302 305 306 307 307 308 309 310 311 312 311 308 304 300 296 291 287 282 279 278 276 273 269 267 265 264 263 262 261 260 260 260 260 260 262 263 265 267 269 271 273 274 276 278 279 281 282 284 286 288 290 290 290 290 290 290 291 291 291 291 291 292 292 293 293 292 292 292 293 294 294 292 291 290 291 292 292 293 296 300 302 301 299 299 299 300 300 300
303 305 306 307 307 308 309 310 311 311 310 306 302 298 295 292 289 285 281 279 277 276 274 271 269 266 265 264 263 263 262 263 263 264 266 268 269 271 273 274 275 277 278 279 281 283 284 286 288 289 290 290 289 289 289 290 290 291 291 292 293 293 293 294 293 293 294 294 295 296 294 292 290 290 291 292 293 296 300 302 301 300 300 300 301 301 301 301
304 306 306 307 307 308 309 310 311 310 307 304 300 297 295 293 291 289 286 283 280 279 278 277 273 269 267 265 264 264 264 264 265 266 268 269 271 272 274 275 277 278 279 280 282 283 285 286 288 288 288 288 288 289 289 290 290 291 292 293 294 294 295 296 296 296 296 296 298 297 294 292 290 291 292 293 296 300 302 301 300 300 301 301 301 302 302 301
304 306 306 307 307 308 309 310 310 308 305 301 298 296 295 294 293 292 291 288 285 282 281 280 278 274 270 267 266 265 265 265 266 267 268 269 270 272 274 276 277 279 280 281 282 283 284 285 286 286 286 286 287 288 289 290 291 292 293 294 295 295 297 298 299 299 298 298 298 297 295 292 291 294 296 297 300 303 302 301 301 301 301 301 302 302 301 302
304 305 306 307 307 308 309 309 308 306 302 298 296 295 295 295 295 295 294 292 289 287 285 284 282 279 275 271 268 267 266 266 266 267 268 269 271 272 274 276 278 279 281 282 282 283 283 284 284 285 285 286 287 288 289 290 291 293 293 293 294 296 298 300 301 301 300 301 302 300 298 294 294 296 298 299 303 303 302 302 302 301 301 302 302 302 302 303
304 305 305 306 307 308 309 309 307 304 299 297 295 295 295 295 296 296 295 295 293 292 291 289 287 284 280 276 272 270 270 269 269 269 270 271 273 274 276 277 278 280 281 282 283 283 283 284 284 285 285 286 287 288 289 291 292 293 294 295 297 299 301 302 304 303 303 305 306 304 302 299 297 298 299 302 304 303 302 303 302 301 301 302 302 302 303 304
303 304 305 306 307 308 308 307 304 301 297 296 295 295 295 295 296 296 296 296 296 294 293 292 290 287 284 281 278 275 274 272 272 272 273 274 275 276 277 278 279 280 281 282 283 284 285 285 285 285 285 286 288 289 290 292 293 295 296 298 300 301 302 303 304 303 303 306 305 304 304 301 299 299 302 305 304 304 304 304 302 302 302 303 303 303 304 305
303 304 305 306 307 307 306 304 301 298 296 295 294 294 294 295 295 296 297 298 297 296 295 294 292 290 288 285 282 280 277 276 276 276 276 277 277 278 279 279 280 281 282 283 284 284 285 285 284 285 286 287 288 290 292 293 295 297 299 300 301 302 303 303 303 303 303 304 303 303 305 302 298 299 303 305 304 304 305 303 302 303 304 304 304 304 305 305
303 304 305 306 306 306 304 301 298 295 294 294 294 294 294 295 297 298 298 298 297 297 296 295 293 292 290 288 286 284 282 280 279 279 279 279 279 279 280 281 282 282 283 284 284 284 285 286 286 285 286 288 290 291 293 295 296 297 297 299 300 301 302 303 304 304 304 305 303 303 305 302 299 301 303 303 303 304 304 303 303 304 304 304 304 305 305 305
304 305 305 305 305 304 301 298 296 295 294 293 293 293 295 297 298 299 298 298 297 296 295 294 293 292 291 289 287 286 285 284 282 282 282 282 281 281 282 283 284 284 285 285 286 286 287 287 288 288 289 290 291 292 294 296 296 295 295 297 300 301 301 302 303 303 304 305 303 305 307 303 302 304 304 303 304 305 304 303 304 305 304 304 305 305 305 305
304 305 305 304 303 300 298 295 295 294 292 292 292 294 296 298 299 299 298 297 295 294 294 293 292 291 290 289 288 287 287 286 285 285 285 285 285 285 285 286 286 286 287 287 288 288 289 289 289 290 291 290 291 294 295 294 294 294 296 299 300 300 300 301 301 301 303 304 303 305 307 304 303 305 304 304 305 306 305 304 305 305 305 305 305 305 306 306
303 304 303 302 299 297 295 293 293 292 290 291 293 295 297 298 297 296 295 294 294 293 294 293 293 292 291 291 290 289 289 289 288 289 289 289 289 289 289 289 289 289 289 290 290 291 291 291 290 291 291 291 293 295 295 293 294 295 297 299 300 300 301 302 302 303 304 304 304 305 306 304 304 304 303 304 305 305 304 304 305 305 305 305 305 306 307 307
302 302 300 298 296 294 292 291 291 289 290 292 294 296 297 296 295 295 294 294 295 295 295 295 295 294 294 293 293 292 291 291 291 292 292 292 292 292 292 292 292 292 292 293 292 293 292 291 290 291 291 291 292 294 295 295 297 298 300 300 301 301 301 302 302 303 305 305 305 306 306 306 306 305 304 305 306 305 305 305 306 306 306 306 306 307 307 307
301 299 297 295 293 291 290 289 288 289 291 294 296 297 297 296 296 295 296 296 296 296 296 296 296 295 295 295 294 294 293 293 293 293 294 294 294 294 294 294 294 295 294 294 293 292 292 291 291 292 290 289 289 291 293 295 296 298 299 300 301 301 301 302 302 303 304 305 305 305 305 306 306 306 306 307 307 307 307 307 307 307 307 306 306 307 307 308
298 296 294 292 290 288 287 288 288 291 294 296 297 298 297 297 297 297 297 297 296 296 296 296 296 296 296 296 296 296 295 295 295 295 295 295 296 296 296 296 296 295 294 293 292 292 291 291 292 292 289 288 289 290 291 293 294 296 297 298 300 301 302 302 303 303 304 305 304 304 305 306 306 306 307 307 307 307 308 308 307 306 306 305 306 307 308 308
294 292 290 288 288 287 287 289 291 294 296 297 298 298 297 297 297 297 296 296 297 297 297 297 298 298 298 298 298 298 298 298 298 297 298 297 297 297 296 295 294 293 292 292 292 292 291 290 290 290 289 289 291 291 292 293 294 296 297 299 300 301 302 303 303 303 303 304 305 305 306 307 307 307 307 307 307 307 307 307 306 306 305 305 306 307 307 307
290 288 286 286 287 288 290 293 295 297 298 298 297 297 297 296 296 296 297 298 298 299 299 300 300 301 301 301 301 301 300 300 300 300 299 298 297 296 294 293 293 292 293 292 292 291 289 288 289 290 290 290 291 292 293 294 295 297 299 300 301 302 302 303 303 303 304 305 307 307 308 308 308 307 307 307 307 307 307 306 306 306 306 306 306 307 307 307
286 286 286 287 288 291 294 297 298 299 299 298 297 297 297 297 297 299 300 300 301 301 302 303 303 304 304 303 303 302 302 301 300 299 298 297 296 295 294 294 295 294 294 293 291 288 287 287 289 291 292 293 293 294 295 296 298 299 300 301 302 302 303 303 304 304 305 306 307 308 308 307 307 307 307 307 307 307 307 307 307 306 306 306 306 307 307 308
285 285 286 289 293 295 298 299 298 298 299 299 298 298 298 299 300 301 302 303 304 305 306 306 306 305 305 304 303 302 300 299 298 297 296 296 296 297 296 296 296 294 293 290 287 286 286 288 290 292 293 295 295 296 297 299 301 301 302 302 302 303 303 304 304 305 305 307 307 308 308 307 307 307 308 307 307 307 307 307 306 306 306 306 307 308 308 309
285 287 290 294 296 298 298 298 298 299 300 300 300 300 300 302 303 304 305 306 306 307 307 307 306 305 303 302 301 300 298 297 297 297 297 297 298 298 297 296 294 292 289 287 286 287 288 289 290 292 294 295 297 298 299 300 302 302 303 303 303 303 304 304 305 305 306 307 307 307 307 306 307 307 307 307 306 307 307 306 306 306 306 307 307 308 308 309
288 292 295 296 297 298 299 300 300 301 301 301 301 302 303 304 306 307 307 307 308 307 307 306 305 303 302 301 300 299 298 298 298 298 298 298 298 297 295 293 290 288 287 287 288 289 289 290 292 293 295 296 298 299 300 301 302 302 303 303 303 304 304 305 306 306 307 307 307 307 306 306 306 306 306 306 306 307 306 306 306 306 306 307 308 308 309 309
Height
10743 10744 10745 10746 10747 10748 10749 10750 10751 10751 10752 10753 10753 10754 10754 10755 10755 10756 10756 10756 10757 10757 10758 10758 10758 10758 10758 10758 10758 10758 10758 10759 10759 10759 10760 10759 10759 10759 10759 10758 10758 10757 10757 10756 10756 10755 10754 10753 10751 10751 10749 10747 10745 10744 10742 10740 10739 10738 10736 10734 10732 10730 10728 10726 10723 10721 10719 10716 10714 10711 10709 10706 10704 10701 10698 10696 10693 10691 10688 10685 10681 10677 10676 10675 10672 10669 10667 10665
10741 10742 10743 10744 10745 10746 10747 10747 10748 10749 10750 10750 10750 10751 10751 10751 10752 10752 10753 10753 10753 10754 10754 10754 10754 10754 10754 10754 10754 10754 10754 10754 10754 10755 10755 10755 10755 10755 10754 10754 10753 10752 10752 10751 10751 10750 10748 10747 10746 10745 10744 10742 10741 10739 10737 10735 10734 10732 10730 10728 10726 10724 10722 10720 10717 10715 10713 10710 10708 10705 10703 10700 10697 10694 10691 10690 10687 10684 10683 10680 10675 10671 10670 10669 10666 10664 10662 10660
10739 10740 10741 10742 10743 10744 10744 10745 10746 10746 10747 10747 10747 10747 10748 10748 10749 10749 10749 10749 10750 10750 10751 10751 10751 10751 10750 10750 10750 10750 10750 10750 10750 10750 10750 10750 10750 10750 10750 10749 10749 10748 10747 10746 10746 10745 10743 10742 10741 10740 10738 10737 10735 10733 10731 10729 10728 10726 10724 10722 10720 10718 10716 10714 10712 10709 10707 10704 10702 10699 10697 10694 10691 10688 10685 10684 10681 10680 10678 10673 10669 10666 10665 10663 10661 10659 10657 10655
10736 10737 10738 10739 10740 10741 10742 10742 10743 10743 10744 10744 10744 10744 10744 10745 10745 10745 10745 10746 10746 10746 10746 10746 10746 10746 10746 10746 10745 10745 10745 10745 10746 10746 10746 10746 10746 10745 10745 10744 10744 10743 10743 10742 10741 10740 10738 10737 10735 10734 10733 10731 10730 10727 10725 10724 10723 10721 10719 10717 10714 10712 10710 10708 10706 10703 10701 10699 10696 10694 10691 10688 10686 10682 10680 10677 10676 10676 10671 10666 10663 10661 10659 10658 10655 10654 10652 10649
10733 10734 10735 10736 10737 10738 10738 10739 10740 10740 10740 10740 10740 10740 10741 10741 10741 10741 10741 10741 10742 10742 10742 10741 10741 10741 10741 10741 10740 10740 10740 10741 10741 10741 10741 10741 10740 10740 10740 10739 10739 10739 10738 10737 10735 10735 10733 10732 10730 10728 10727 10726 10724 10721 10719 10718 10717 10715 10713 10711 10709 10707 10705 10702 10701 10698 10696 10693 10691 10689 10686 10683 10680 10676 10674 10672 10671 10671 10665 10659 10658 10655 10653 10652 10649 10648 10646 10643
10730 10731 10732 10733 10733 10734 10735 10735 10736 10736 10736 10736 10736 10736 10736 10737 10737 10737 10737 10737 10737 10737 10737 10736 10736 10736 10736 10736 10735 10735 10735 10736 10736 10736 10735 10735 10735 10734 10734 10734 10733 10733 10732 10731 10730 10729 10728 10726 10724 10723 10721 10720 10718 10715 10713 10712 10711 10709 10707 10705 10703 10702 10699 10697 10696 10693 10691 10688 10686 10683 10680 10677 10674 10670 10667 10667 10667 10664 10659 10654 10653 10650 10648 10647 10644 10642 10640 10637
10727 10728 10729 10730 10730 10731 10731 10732 10732 10732 10732 10733 10733 10732 10732 10732 10732 10732 10732 10732 10732 10732 10732 10731 10731 10731 10731 10731 10730 10730 10730 10731 10731 10730 10729 10729 10728 10728 10728 10728 10728 10727 10726 10726 10724 10723 10722 10720 10718 10717 10716 10714 10712 10709 10708 10707 10705 10704 10702 10700 10698 10696 10695 10693 10690 10688 10686 10684 10681 10678 10675 10671 10667 10665 10662 10662 10661 10657 10653 10650 10647 10645 10643 10641 10639 10636 10634 10632
10725 10726 10726 10727 10727 10727 10728 10728 10728 10728 10729 10729 10729 10729 10728 10728 10728 10728 10728 10727 10728 10728 10727 10727 10727 10727 10726 10726 10725 10725 10725 10725 10725 10725 10723 10723 10722 10722 10722 10722 10722 10720 10720 10719 10718 10717 10715 10714 10713 10711 10710 10708 10706 10704 10703 10701 10700 10698 10697 10695 10693 10691 10690 10688 10685 10683 10681 10678 10675 10672 10669 10664 10661 10660 10658 10657 10655 10651 10648 10644 10642 10640 10637 10635 10633 10630 10629 10626
10723 10723 10724 10724 10724 10725 10725 10725 10725 10725 10725 10725 10725 10725 10725 10725 10725 10724 10724 10723 10723 10723 10723 10723 10722 10722 10721 10720 10720 10720 10720 10720 10720 10719 10718 10717 10716 10716 10716 10716 10715 10714 10713 10713 10712 10710 10709 10708 10707 10705 10704 10702 10701 10700 10698 10697 10695 10693 10692 10690 10688 10687 10685 10683 10680 10678 10676 10673 10670 10666 10663 10658 10655 10656 10654 10651 10648 10645 10642 10639 10637 10634 10631 10629 10627 10625 10623 10620
10721 10721 10722 10722 10722 10722 10723 10723 10723 10723 10723 10722 10722 10722 10722 10721 10721 10720 10719 10719 10719 10719 10718 10718 10717 10717 10716 10715 10714 10714 10714 10714 10713 10712 10712 10710 10710 10710 10710 10709 10709 10707 10707 10706 10705 10704 10703 10702 10701 10700 10699 10697 10696 10695 10694 10692 10690 10689 10687 10685 10684 10682 10680 10678 10676 10673 10671 10667 10664 10661 10657 10652 10650 10650 10649 10645 10643 10640 10637 10635 10632 10629 10626 10623 10622 10620 10617 10613
10719 10720 10720 10720 10720 10721 10721 10721 10720 10720 10720 10719 10719 10718 10718 10717 10716 10716 10715 10714 10714 10713 10713 10712 10712 10711 10710 10710 10709 10708 10708 10708 10707 10706 10705 10705 10704 10704 10703 10703 10702 10701 10701 10700 10699 10698 10698 10697 10696 10695 10694 10693 10692 10690 10689 10688 10686 10684 10683 10681 10679 10677 10675 10673 10671 10668 10666 10661 10658 10656 10651 10646 10645 10644 10642 10640 10637 10634 10632 10630 10627 10623 10620 10619 10617 10615 10610 10606
10718 10718 10718 10718 10718 10718 10718 10718 10717 10717 10716 10716 10715 10714 10714 10713 10712 10711 10710 10710 10709 10708 10708 10707 10706 10706 10705 10704 10703 10702 10703 10702 10701 10700 10700 10699 10699 10698 10697 10697 10697 10696 10695 10695 10694 10693 10693 10692 10692 10690 10689 10688 10687 10686 10685 10683 10682 10680 10679 10676 10674 10673 10670 10668 10666 10663 10660 10656 10653 10652 10646 10639 10638 10638 10635 10634 10631 10629 10627 10624 10621 10617 10615 10614 10612 10609 10604 10600
10716 10716 10716 10716 10716 10716 10715 10715 10714 10713 10713 10712 10711 10710 10709 10708 10707 10706 10705 10704 10703 10703 10702 10702 10701 10701 10700 10699 10698 10698 10698 10697 10696 10695 10694 10694 10693 10693 10692 10692 10692 10691 10690 10690 10689 10689 10689 10688 10688 10687 10685 10684 10683 10682 10680 10679 10678 10676 10674 10672 10670 10668 10665 10662 10661 10658 10655 10651 10647 10647 10642 10632 10631 10631 10627 10628 10626 10623 10622 10618 10614 10612 10611 10609 10606 10603 10599 10595
10715 10715 10715 10714 10714 10713 10713 10712 10711 10710 10709 10708 10707 10706 10705 10703 10702 10701 10700 10699 10698 10697 10697 10697 10696 10696 10695 10694 10694 10693 10693 10692 10691 10690 10690 10689 10688 10688 10688 10687 10687 10686 10686 10685 10685 10685 10684 10684 10684 10683 10682 10681 10679 10678 10676 10675 10673 10672 10670 10667 10665 10663 10660 10656 10655 10653 10649 10646 10642 10641 10639 10627 10623 10625 10621 10620 10620 10618 10616 10612 10609 10607 10605 10603 10600 10596 10592 10588
10713 10713 10713 10712 10712 10711 10710 10709 10708 10707 10706 10705 10703 10702 10700 10699 10697 10696 10695 10694 10693 10693 10692 10692 10691 10691 10690 10689 10689 10689 10688 10688 10687 10686 10685 10685 10684 10683 10683 10683 10682 10682 10681 10681 10681 10681 10681 10680 10680 10679 10678 10677 10675 10674 10672 10670 10668 10667 10665 10662 10659 10657 10655 10652 10649 10648 10645 10641 10637 10635 10634 10624 10616 10617 10616 10613 10612 10611 10609 10605 10603 10601 10598 10595 10593 10589 10585 10582
10712 10711 10711 10710 10709 10709 10708 10706 10705 10704 10702 10701 10699 10698 10696 10695 10693 10692 10691 10690 10689 10688 10688 10687 10687 10686 10685 10685 10685 10685 10684 10684 10683 10682 10681 10680 10680 10679 10679 10679 10678 10678 10678 10678 10677 10677 10677 10677 10676 10675 10674 10672 10671 10669 10667 10665 10664 10662 10660 10658 10655 10651 10649 10647 10644 10641 10639 10637 10633 10629 10627 10620 10611 10608 10608 10608 10606 10604 10602 10599 10596 10595 10592 10589 10585 10582 10579 10576
10710 10709 10708 10708 10707 10706 10705 10703 10702 10700 10699 10697 10695 10693 10692 10690 10689 10687 10686 10685 10684 10683 10683 10682 10682 10682 10681 10681 10681 10680 10680 10680 10679 10678 10677 10676 10676 10675 10675 10675 10675 10675 10675 10674 10674 10674 10674 10673 10672 10671 10670 10668 10666 10665 10663 10660 10659 10657 10655 10653 10650 10646 10643 10641 10640 10636 10632 10631 10628 10624 10620 10614 10606 10600 10599 10602 10601 10597 10595 10594 10590 10587 10585 10582 10579 10576 10573 10569
10708 10707 10706 10705 10704 10703 10702 10700 10699 10697 10695 10693 10691 10689 10687 10685 10683 10682 10681 10680 10679 10678 10678 10677 10677 10677 10676 10676 10676 10676 10675 10675 10674 10674 10673 10672 10672 10672 10672 10672 10672 10672 10672 10671 10671 10671 10670 10669 10668 10667 10665 10664 10662 10660 10658 10655 10654 10652 10650 10648 10644 10641 10637 10635 10635 10631 10627 10625 10621 10617 10615 10610 10601 10593 10590 10594 10596 10591 10588 10587 10584 10581 10578 10575 10572 10570 10566 10562
10705 10704 10703 10703 10702 10700 10699 10697 10696 10693 10691 10689 10687 10684 10682 10680 10678 10677 10676 10675 10674 10673 10672 10672 10672 10672 10672 10672 10671 10671 10671 10670 10670 10670 10669 10669 10669 10669 10669 10669 10669 10669 10669 10668 10668 10667 10666 10664 10664 10662 10661 10659 10657 10655 10653 10651 10649 10647 10645 10642 10639 10636 10632 10629 10629 10625 10621 10621 10617 10611 10609 10605 10597 10590 10585 10585 10587 10586 10582 10580 10577 10574 10571 10568 10565 10562 10558 10555
10703 10702 10701 10700 10699 10698 10696 10694 10692 10690 10688 10685 10682 10680 10678 10675 10673 10672 10670 10669 10669 10668 10667 10667 10667 10667 10667 10667 10667 10667 10667 10666 10666 10666 10666 10666 10666 10667 10667 10667 10667 10667 10666 10665 10664 10663 10662 10660 10659 10658 10656 10654 10652 10650 10648 10646 10644 10641 10639 10636 10633 10631 10628 10625 10623 10619 10615 10615 10612 10606 10603 10598 10591 10586 10582 10579 10579 10578 10576 10573 10570 10567 10564 10561 10558 10554 10550 10547
10701 10700 10698 10697 10696 10695 10693 10691 10688 10686 10684 10681 10678 10676 10673 10671 10669 10667 10666 10665 10664 10663 10662 10662 10662 10662 10662 10662 10662 10662 10662 10663 10663 10663 10663 10663 10664 10664 10664 10664 10664 10663 10662 10661 10660 10658 10657 10656 10654 10653 10652 10650 10647 10645 10643 10640 10638 10635 10633 10630 10627 10625 10622 10620 10617 10613 10609 10608 10606 10601 10597 10591 10585 10581 10576 10575 10574 10571 10569 10566 10563 10560 10557 10555 10551 10547 10543 10539
10698 10697 10696 10695 10694 10692 10690 10688 10685 10682 10680 10677 10674 10671 10669 10667 10664 10663 10661 10660 10660 10659 10658 10658 10658 10658 10658 10658 10658 10659 10659 10660 10660 10661 10661 10661 10661 10661 10661 10661 10660 10660 10658 10657 10656 10654 10653 10652 10650 10648 10646 10644 10642 10639 10637 10635 10633 10629 10626 10624 10622 10618 10616 10615 10612 10607 10603 10601 10599 10595 10590 10584 10580 10576 10569 10568 10567 10564 10562 10559 10556 10553 10550 10548 10543 10539 10535 10531
10696 10694 10693 10692 10691 10689 10687 10684 10682 10679 10676 10674 10671 10667 10665 10663 10661 10659 10658 10657 10656 10655 10655 10654 10654 10654 10654 10655 10655 10656 10657 10658 10658 10658 10658 10658 10658 10658 10658 10657 10657 10655 10654 10653 10651 10650 10648 10646 10645 10643 10641 10638 10636 10633 10631 10630 10627 10624 10620 10617 10616 10613 10610 10608 10606 10603 10597 10595 10592 10588 10583 10578 10574 10571 10564 10561 10560 10556 10555 10553 10549 10546 10543 10540 10536 10532 10527 10523
10693 10692 10691 10689 10688 10686 10684 10681 10678 10676 10673 10670 10667 10664 10661 10659 10658 10656 10655 10653 10652 10652 10652 10651 10651 10651 10651 10652 10653 10654 10654 10655 10655 10655 10655 10655 10654 10654 10654 10653 10652 10651 10649 10648 10647 10645 10643 10641 10640 10637 10635 10632 10630 10627 10625 10624 10622 10618 10613 10610 10610 10608 10604 10602 10600 10597 10593 10590 10587 10581 10576 10572 10567 10564 10559 10556 10554 10551 10549 10546 10542 10540 10536 10533 10529 10525 10520 10516
10691 10689 10688 10687 10685 10683 10680 10678 10675 10672 10670 10667 10664 10661 10658 10656 10654 10653 10652 10650 10649 10649 10649 10648 10648 10648 10649 10649 10649 10650 10651 10650 10650 10650 10650 10650 10650 10650 10649 10648 10647 10646 10645 10643 10642 10640 10637 10636 10634 10631 10629 10626 10624 10621 10619 10618 10616 10613 10608 10603 10603 10602 10598 10595 10593 10590 10587 10584 10581 10575 10570 10567 10561 10555 10552 10550 10547 10545 10543 10539 10536 10533 10529 10525 10522 10518 10514 10509
10689 10687 10686 10684 10682 10680 10677 10675 10672 10669 10667 10664 10661 10658 10656 10653 10651 10650 10649 10648 10647 10647 10646 10646 10646 10646 10646 10646 10647 10647 10647 10647 10647 10647 10647 10646 10646 10645 10644 10643 10643 10641 10639 10638 10637 10634 10632 10630 10628 10626 10623 10620 10618 10616 10612 10610 10609 10607 10603 10598 10596 10594 10592 10589 10586 10583 10581 10577 10575 10569 10562 10562 10557 10548 10544 10542 10540 10539 10537 10532 10529 10525 10521 10517 10514 10511 10507 10501
10686 10685 10683 10681 10679 10677 10674 10672 10669 10666 10664 10661 10658 10655 10653 10651 10649 10647 10647 10646 10645 10644 10644 10644 10644 10644 10644 10643 10644 10644 10644 10643 10643 10643 10643 10643 10642 10641 10640 10639 10638 10636 10634 10633 10631 10628 10626 10625 10622 10620 10618 10615 10612 10610 10606 10603 10602 10601 10597 10594 10591 10588 10585 10583 10579 10576 10574 10570 10568 10563 10555 10553 10550 10543 10537 10534 10532 10531 10527 10525 10521 10516 10513 10510 10507 10504 10499 10493
10684 10682 10680 10678 10676 10674 10671 10669 10666 10663 10660 10658 10655 10652 10650 10648 10646 10645 10644 10643 10642 10642 10641 10641 10641 10641 10641 10641 10641 10641 10640 10640 10640 10640 10639 10639 10638 10637 10636 10634 10633 10631 10629 10628 10626 10623 10621 10619 10617 10614 10612 10609 10606 10604 10600 10597 10596 10594 10591 10588 10585 10582 10580 10576 10573 10569 10566 10564 10562 10557 10550 10546 10543 10535 10530 10528 10526 10523 10518 10516 10513 10508 10505 10503 10500 10496 10491 10486
10681 10680 10678 10675 10673 10671 10668 10666 10663 10660 10657 10654 10652 10649 10647 10645 10643 10642 10641 10640 10640 10639 10639 10639 10639 10638 10638 10638 10638 10637 10637 10637 10636 10636 10635 10634 10633 10632 10631 10629 10628 10626 10623 10622 10620 10617 10615 10613 10611 10608 10606 10604 10600 10597 10594 10591 10590 10588 10585 10582 10579 10576 10574 10570 10567 10563 10560 10558 10556 10550 10544 10541 10537 10527 10520 10521 10520 10515 10512 10509 10505 10502 10500 10496 10493 10488 10483 10479
10679 10677 10675 10672 10670 10668 10665 10662 10660 10657 10654 10651 10648 10646 10644 10643 10641 10639 10638 10637 10637 10636 10636 10636 10635 10635 10635 10634 10634 10633 10633 10633 10632 10631 10630 10629 10628 10627 10626 10624 10622 10620 10618 10616 10614 10612 10610 10607 10605 10602 10600 10598 10594 10591 10588 10586 10584 10581 10578 10575 10573 10570 10567 10564 10561 10555 10552 10551 10550 10545 10538 10533 10530 10520 10512 10513 10511 10504 10502 10501 10498 10496 10494 10489 10485 10481 10477 10474
10676 10674 10672 10669 10667 10664 10662 10659 10656 10654 10651 10648 10645 10643 10641 10640 10639 10637 10635 10634 10633 10632 10632 10632 10631 10631 10631 10630 10630 10629 10629 10628 10627 10626 10625 10624 10623 10622 10620 10619 10617 10615 10613 10610 10608 10606 10604 10601 10599 10596 10594 10591 10588 10585 10582 10580 10577 10574 10571 10568 10566 10564 10561 10559 10556 10550 10545 10543 10542 10539 10533 10527 10521 10514 10507 10506 10503 10496 10493 10492 10491 10489 10485 10481 10477 10474 10471 10467
10673 10671 10669 10666 10664 10661 10658 10656 10653 10650 10647 10644 10642 10640 10638 10637 10636 10634 10633 10631 10630 10629 10628 10628 10627 10627 10626 10626 10625 10625 10624 10623 10622 10621 10620 10619 10618 10616 10615 10614 10611 10610 10608 10605 10603 10601 10598 10595 10593 10590 10588 10584 10582 10579 10576 10574 10570 10566 10564 10560 10559 10557 10554 10554 10550 10545 10541 10537 10535 10532 10526 10520 10513 10506 10503 10499 10496 10492 10488 10486 10483 10480 10476 10473 10470 10467 10464 10460
10670 10668 10665 10663 10660 10658 10655 10652 10649 10646 10643 10641 10638 10637 10635 10634 10632 10631 10630 10628 10627 10626 10624 10624 10623 10622 10622 10621 10620 10620 10619 10618 10617 10616 10615 10614 10613 10611 10610 10608 10606 10604 10603 10601 10598 10596 10593 10589 10586 10583 10580 10577 10574 10572 10569 10568 10564 10560 10556 10553 10552 10548 10547 10548 10544 10538 10534 10530 10529 10526 10518 10512 10505 10500 10498 10493 10489 10487 10484 10481 10477 10472 10469 10465 10462 10458 10454 10450
10667 10664 10662 10659 10657 10654 10651 10648 10645 10642 10640 10638 10635 10634 10632 10630 10629 10628 10626 10625 10624 10622 10621 10620 10619 10618 10618 10617 10616 10615 10614 10614 10613 10611 10610 10609 10608 10606 10604 10603 10601 10599 10597 10595 10593 10591 10588 10584 10580 10576 10573 10570 10567 10564 10562 10560 10558 10555 10550 10547 10545 10540 10538 10539 10537 10533 10529 10524 10522 10518 10511 10502 10496 10495 10494 10488 10485 10484 10481 10476 10471 10466 10462 10458 10454 10450 10445 10441
10664 10661 10659 10656 10653 10651 10648 10645 10642 10639 10637 10635 10633 10631 10629 10627 10626 10625 10623 10622 10621 10619 10618 10616 10615 10615 10613 10612 10611 10610 10610 10609 10608 10607 10606 10604 10603 10601 10599 10597 10595 10593 10591 10589 10587 10585 10583 10579 10574 10570 10566 10563 10561 10558 10555 10553 10551 10549 10545 10541 10538 10534 10530 10530 10529 10525 10521 10518 10516 10511 10504 10495 10488 10489 10489 10483 10481 10479 10475 10470 10465 10459 10455 10450 10446 10441 10436 10431
10660 10658 10655 10653 10650 10647 10644 10641 10638 10636 10634 10632 10630 10628 10626 10624 10623 10622 10621 10619 10618 10616 10615 10613 10612 10611 10609 10608 10607 10606 10605 10604 10603 10602 10600 10599 10598 10596 10594 10592 10590 10587 10585 10583 10581 10578 10577 10575 10569 10563 10560 10557 10554 10552 10549 10546 10545 10543 10540 10536 10532 10529 10525 10522 10521 10518 10513 10511 10510 10506 10500 10490 10481 10484 10484 10479 10477 10474 10468 10463 10458 10452 10447 10442 10437 10432 10427 10422
10657 10655 10652 10649 10646 10643 10640 10637 10635 10633 10631 10629 10627 10626 10624 10622 10621 10620 10618 10617 10615 10613 10612 10610 10609 10607 10606 10604 10603 10602 10601 10600 10598 10597 10595 10594 10593 10591 10589 10587 10584 10582 10579 10576 10574 10571 10570 10569 10565 10558 10553 10551 10549 10547 10544 10540 10538 10537 10534 10530 10527 10524 10521 10516 10514 10512 10508 10506 10504 10500 10496 10487 10476 10474 10477 10475 10471 10467 10462 10455 10449 10444 10439 10435 10429 10422 10417 10413
10654 10651 10649 10646 10643 10640 10637 10634 10632 10630 10628 10626 10625 10623 10621 10620 10618 10617 10615 10614 10612 10611 10609 10607 10605 10604 10602 10601 10599 10598 10597 10595 10594 10592 10591 10589 10588 10586 10584 10581 10578 10576 10573 10570 10568 10565 10563 10563 10560 10552 10546 10545 10543 10540 10539 10535 10531 10529 10527 10523 10521 10518 10516 10512 10509 10506 10504 10503 10500 10495 10492 10484 10472 10465 10466 10468 10464 10458 10454 10448 10440 10434 10429 10425 10419 10412 10407 10401
10650 10648 10645 10642 10639 10636 10633 10631 10629 10627 10626 10624 10623 10621 10619 10617 10616 10615 10613 10611 10610 10608 10606 10604 10602 10601 10599 10598 10596 10594 10593 10592 10589 10588 10586 10585 10583 10580 10578 10576 10573 10570 10567 10565 10562 10560 10557 10555 10555 10548 10541 10540 10538 10534 10533 10531 10526 10522 10519 10517 10515 10512 10509 10507 10504 10500 10498 10498 10494 10491 10488 10479 10469 10462 10459 10458 10455 10450 10445 10438 10431 10425 10419 10414 10408 10402 10397 10390
10646 10644 10641 10638 10636 10633 10630 10628 10627 10625 10623 10622 10620 10619 10617 10615 10613 10612 10610 10609 10607 10605 10603 10601 10599 10598 10596 10594 10592 10590 10589 10587 10585 10583 10582 10580 10578 10575 10573 10570 10568 10565 10562 10559 10556 10554 10551 10548 10547 10543 10537 10534 10533 10529 10527 10525 10522 10519 10515 10512 10510 10507 10504 10502 10499 10493 10490 10489 10486 10485 10484 10473 10462 10459 10456 10451 10447 10443 10437 10429 10422 10416 10410 10404 10398 10393 10388 10382
10643 10640 10637 10634 10632 10629 10627 10626 10624 10622 10621 10619 10618 10616 10615 10613 10611 10610 10608 10606 10605 10602 10600 10598 10596 10595 10593 10591 10589 10587 10584 10583 10581 10579 10577 10575 10573 10571 10568 10565 10563 10560 10557 10554 10550 10547 10545 10543 10539 10536 10533 10529 10527 10525 10522 10519 10517 10514 10511 10508 10505 10501 10498 10496 10495 10490 10484 10480 10474 10474 10477 10467 10455 10450 10446 10441 10438 10435 10427 10418 10413 10407 10399 10393 10387 10382 10377 10372
10639 10636 10634 10631 10628 10626 10624 10623 10621 10620 10618 10617 10616 10614 10612 10611 10609 10607 10605 10604 10602 10600 10598 10595 10593 10592 10589 10587 10585 10583 10581 10578 10576 10575 10573 10570 10568 10566 10563 10560 10557 10554 10551 10548 10545 10541 10539 10537 10534 10531 10527 10524 10521 10520 10518 10514 10511 10509 10506 10503 10500 10496 10492 10489 10488 10486 10482 10476 10468 10465 10465 10459 10451 10445 10436 10430 10429 10425 10416 10407 10402 10396 10388 10381 10375 10370 10365 10358
10635 10632 10630 10627 10625 10623 10622 10620 10619 10617 10616 10614 10613 10611 10610 10608 10606 10605 10603 10601 10599 10597 10595 10592 10590 10588 10586 10584 10581 10579 10577 10574 10571 10569 10568 10565 10562 10560 10558 10555 10552 10549 10546 10543 10539 10536 10533 10531 10529 10526 10523 10518 10515 10515 10513 10510 10506 10504 10501 10498 10494 10490 10486 10482 10478 10477 10475 10470 10461 10458 10454 10447 10444 10440 10430 10423 10421 10417 10409 10400 10393 10387 10379 10369 10362 10356 10351 10345
10631 10628 10626 10624 10622 10621 10619 10618 10617 10615 10613 10612 10610 10609 10607 10605 10604 10602 10600 10598 10596 10594 10591 10589 10587 10584 10582 10580 10577 10575 10573 10570 10567 10564 10563 10560 10557 10555 10552 10550 10547 10544 10541 10538 10534 10531 10528 10524 10523 10522 10519 10514 10512 10510 10508 10505 10501 10498 10495 10492 10488 10483 10479 10475 10470 10467 10466 10462 10453 10448 10445 10436 10428 10426 10421 10415 10410 10405 10398 10391 10383 10376 10367 10357 10349 10342 10336 10329
10627 10625 10623 10621 10620 10618 10617 10616 10614 10613 10611 10609 10608 10606 10604 10603 10601 10599 10597 10595 10592 10590 10588 10585 10583 10581 10578 10576 10573 10570 10568 10566 10563 10560 10558 10555 10552 10550 10547 10544 10542 10539 10536 10533 10530 10526 10522 10518 10517 10516 10514 10511 10509 10507 10504 10501 10497 10493 10490 10486 10482 10477 10472 10467 10463 10458 10457 10456 10448 10441 10438 10432 10418 10409 10407 10403 10397 10391 10384 10377 10369 10360 10352 10342 10335 10330 10323 10314
10624 10622 10620 10619 10617 10616 10615 10614 10612 10611 10609 10607 10605 10603 10602 10600 10598 10596 10594 10591 10589 10587 10584 10582 10579 10576 10574 10571 10569 10566 10563 10561 10559 10556 10554 10551 10548 10545 10542 10540 10537 10534 10531 10527 10524 10522 10517 10513 10511 10511 10509 10507 10506 10504 10501 10497 10493 10490 10486 10481 10476 10471 10465 10458 10454 10449 10446 10446 10442 10432 10429 10427 10416 10402 10395 10390 10384 10379 10372 10365 10358 10349 10341 10331 10323 10317 10310 10301
10621 10619 10617 10616 10615 10614 10613 10612 10610 10608 10606 10605 10602 10600 10599 10597 10594 10592 10590 10588 10585 10583 10580 10578 10575 10573 10570 10567 10564 10562 10559 10556 10554 10552 10549 10547 10544 10541 10538 10535 10532 10528 10526 10523 10520 10517 10514 10509 10507 10506 10503 10502 10501 10499 10496 10493 10489 10485 10480 10475 10470 10464 10458 10451 10444 10440 10436 10435 10432 10424 10415 10412 10407 10397 10387 10379 10373 10368 10362 10355 10347 10338 10329 10319 10311 10305 10297 10289
10618 10617 10615 10614 10613 10612 10611 10609 10607 10605 10604 10602 10600 10597 10595 10593 10591 10589 10586 10584 10581 10579 10577 10574 10571 10569 10566 10563 10561 10558 10555 10552 10549 10546 10544 10541 10539 10536 10533 10530 10527 10524 10521 10518 10515 10513 10510 10506 10504 10502 10498 10497 10496 10493 10490 10487 10483 10480 10475 10469 10463 10457 10450 10443 10436 10430 10425 10422 10419 10414 10405 10397 10392 10387 10378 10368 10361 10356 10350 10343 10334 10324 10315 10306 10299 10293 10284 10274
10616 10615 10613 10612 10611 10610 10608 10606 10604 10602 10601 10599 10596 10594 10592 10590 10587 10585 10583 10580 10578 10575 10573 10570 10567 10565 10562 10559 10556 10553 10550 10547 10544 10541 10538 10536 10533 10531 10528 10525 10522 10519 10516 10514 10511 10509 10507 10503 10501 10498 10493 10490 10489 10487 10484 10480 10476 10473 10468 10461 10456 10450 10443 10436 10427 10420 10416 10412 10407 10403 10397 10388 10380 10375 10368 10357 10348 10341 10336 10329 10320 10309 10298 10290 10285 10279 10270 10259
10614 10613 10611 10610 10609 10607 10605 10604 10601 10599 10597 10595 10593 10591 10589 10586 10584 10582 10579 10576 10574 10571 10569 10566 10563 10560 10557 10554 10551 10548 10545 10542 10539 10536 10533 10531 10528 10526 10523 10520 10517 10514 10512 10509 10507 10506 10504 10500 10497 10495 10489 10484 10481 10479 10477 10474 10469 10464 10459 10453 10448 10442 10435 10428 10419 10410 10406 10403 10397 10390 10384 10378 10369 10362 10355 10345 10333 10325 10319 10315 10308 10297 10284 10273 10267 10262 10254 10245
10612 10611 10609 10608 10606 10604 10602 10601 10599 10596 10594 10592 10590 10587 10585 10583 10580 10578 10575 10572 10570 10567 10564 10561 10558 10555 10552 10549 10546 10543 10540 10537 10534 10532 10529 10527 10524 10521 10519 10516 10513 10510 10508 10506 10504 10502 10500 10497 10494 10491 10486 10479 10475 10472 10469 10467 10463 10456 10449 10444 10438 10433 10427 10420 10411 10401 10395 10393 10390 10381 10372 10366 10360 10353 10347 10337 10324 10311 10300 10294 10290 10282 10271 10261 10252 10244 10237 10230
10611 10609 10607 10605 10603 10602 10600 10597 10596 10593 10591 10589 10586 10583 10581 10579 10576 10573 10570 10568 10565 10563 10559 10557 10554 10551 10548 10545 10541 10538 10536 10533 10530 10528 10525 10523 10520 10517 10514 10512 10509 10507 10504 10502 10500 10498 10496 10493 10489 10486 10482 10476 10470 10466 10462 10459 10456 10451 10443 10436 10429 10424 10418 10411 10402 10391 10381 10377 10375 10368 10360 10354 10348 10341 10336 10330 10320 10305 10288 10276 10270 10264 10256 10250 10242 10231 10220 10212